Content
SEND FEEDBACK

Daily
Averages
Monthly
Summary
United States of America

CHICAGO, ILLINOIS


Home > North America > United States > Illinois
Elevation: 674 feet     Latitude: 41 59N     Longitude: 087 54W

WEATHER
 
SELECT A DAY
Number of Records: 194,774;   Date Range: 7/8/95 - 7/20/14
 
SHARE

PRINT THIS DATA

[ ← Previous Day ]
WEATHER ALMANAC - JANUARY 25, 2013
[ Next Day → ]
[ °C ]   °F
Weather ElementAverageHighLow
Temperature20.8 °F27 °F (5:52 pm)17.6 °F (5:05 am)
Dewpoint14.2 °F19 °F (5:52 pm)6.1 °F (1:52 am)
Humidity76.4 %93 % (5:34 am)55 % (1:52 am)
Barometer30.14 in30.34 in (1:52 am)29.99 in (3:20 pm)
Wind Speed9 mph13.8 mph (7:52 pm)
Wind Gust17.3 mph (1:52 pm)
Weather ElementAverage
Visibility5.5 mi
Wind DirectionSSW (211.4 °)

Weather ElementTotal
Precipitation---
Heating Degree Days42.7 (Base 65)
Averaged from 37 records on January 25, 2013
WEATHER CONDITIONS BREAKOUT
WIND DIRECTION BREAKOUT
WEATHER BY HOUR - JANUARY 25, 2013
[ °C ]   °F
Local TimeTemperatureDewpointHumidityBarometerVisibilityWind DirectionWind SpeedGust SpeedPrecipitationEventsConditions
1:52 AM19.9 °F6.1 °F55 %30.34 in10.0 miSSE (160°)10.4 mphMostly Cloudy
2:52 AM19.9 °F7.0 °F57 %30.31 in10.0 miSSE (150°)5.8 mphOvercast
3:52 AM19.9 °F7.0 °F57 %30.24 in10.0 miSSE (150°)9.2 mphOvercast
4:46 AM19.4 °F10.4 °F68 %30.19 in2.0 miSouth (170°)10.4 mph0.00 inSnowLight Snow
4:52 AM19.0 °F12.0 °F74 %30.22 in1.5 miSouth (170°)11.5 mph0.00 inSnowLight Snow
5:05 AM17.6 °F12.2 °F79 %30.19 in1.0 miSSE (160°)9.2 mph0.00 inSnowLight Snow
5:15 AM17.6 °F14.0 °F86 %30.19 in0.8 miSSE (150°)5.8 mph0.00 inSnowLight Snow
5:25 AM17.6 °F14.0 °F86 %30.18 in1.0 miSouth (170°)6.9 mph0.00 inSnowLight Snow
5:34 AM17.6 °F15.8 °F93 %30.18 in0.8 miSouth (170°)5.8 mph0.00 inSnowLight Snow
5:47 AM17.6 °F15.8 °F93 %30.18 in1.0 miSSE (160°)6.9 mph0.00 inSnowLight Snow
5:52 AM18.0 °F15.1 °F88 %30.21 in1.0 miSouth (170°)6.9 mph0.00 inSnowLight Snow
6:09 AM17.6 °F15.8 °F93 %30.18 in0.8 miSouth (170°)3.5 mph0.00 inSnowLight Snow
6:26 AM17.6 °F15.8 °F93 %30.17 in1.0 miSSE (160°)4.6 mph0.00 inSnowLight Snow
6:40 AM17.6 °F15.8 °F93 %30.16 in1.0 miSouth (180°)8.1 mph0.00 inSnowLight Snow
6:52 AM18.0 °F15.1 °F88 %30.19 in1.2 miSouth (170°)9.2 mph0.00 inSnowLight Snow
7:01 AM17.6 °F15.8 °F93 %30.15 in2.0 miSouth (180°)8.1 mph0.00 inSnowLight Snow
7:52 AM19.0 °F15.1 °F85 %30.17 in1.5 miSouth (190°)9.2 mph0.00 inSnowLight Snow
8:10 AM19.4 °F15.8 °F86 %30.12 in2.5 miSouth (180°)11.5 mph0.00 inSnowLight Snow
8:17 AM19.4 °F15.8 °F86 %30.13 in4.0 miSouth (190°)9.2 mph0.00 inSnowLight Snow
8:52 AM19.9 °F15.1 °F81 %30.15 in7.0 miSouth (190°)10.4 mph0.00 inOvercast
9:15 AM19.4 °F15.8 °F86 %30.11 in7.0 miSouth (190°)12.7 mphOvercast
9:52 AM19.9 °F15.1 °F81 %30.14 in9.0 miSSW (200°)10.4 mphOvercast
10:52 AM21.9 °F15.1 °F75 %30.11 in10.0 miSSW (210°)8.1 mphOvercast
11:52 AM21.9 °F15.1 °F75 %30.07 in10.0 miSW (220°)10.4 mphOvercast
12:52 PM24.1 °F16.0 °F71 %30.02 in10.0 miSW (230°)8.1 mphOvercast
1:52 PM24.1 °F17.1 °F75 %30.01 in7.0 miSW (230°)9.2 mph17.3 mphOvercast
2:52 PM25.0 °F17.1 °F72 %30.03 in7.0 miWSW (240°)9.2 mphOvercast
3:20 PM26.6 °F17.6 °F69 %29.99 in4.0 miWest (260°)8.1 mph0.00 inSnowLight Snow
3:52 PM26.1 °F17.1 °F69 %30.01 in6.0 miWSW (240°)8.1 mph0.00 inHaze
4:52 PM26.1 °F18.0 °F71 %30.02 in7.0 miSW (220°)3.5 mphOvercast
5:52 PM27.0 °F19.0 °F72 %30.05 in8.0 miWNW (290°)11.5 mph17.3 mphOvercast
6:52 PM26.1 °F15.1 °F63 %30.08 in10.0 miWNW (300°)12.7 mphOvercast
7:52 PM25.0 °F14.0 °F63 %30.10 in10.0 miNW (310°)13.8 mphOvercast
8:52 PM24.1 °F12.0 °F60 %30.11 in10.0 miNNW (330°)13.8 mphOvercast
9:52 PM23.0 °F10.9 °F60 %30.14 in10.0 miNNW (330°)12.7 mphOvercast
10:52 PM19.9 °F9.0 °F62 %30.17 in10.0 miNW (320°)6.9 mphClear
11:52 PM19.9 °F10.9 °F68 %30.21 in10.0 miNW (310°)10.4 mphScattered Clouds
Hourly data recorded from KPWK, located miles away from Chicago, Illinois







STORIES FROM OUR PARTNERS